VXP1194 KJQF-KHVN

Flight info

Callsign VXP1194
Flight time 1h 25m
Altitude 35000
Route BARMY5 TYI Q64 KALDA SARDI1
Aircraft B738/M-SDE2E3FGHIRWXY/LB1

Departure

Time 2026-04-30 02:20
Airport Concord-Padgett Regional Airport (KJQF)

Arrival

Time 2026-04-30 03:45
Airport Tweed New Haven Airport (KHVN)
Time Latitude Longitude Altitude Speed Heading
2026-04-30 01:50 35.38041 -80.71322 644 ft 0 kts 325°
2026-04-30 02:01 35.38038 -80.71320 644 ft 2 kts 320°
2026-04-30 02:02 35.38028 -80.71305 644 ft 2 kts 309°
2026-04-30 02:02 35.38018 -80.71292 644 ft 2 kts 314°
2026-04-30 02:02 35.38009 -80.71281 643 ft 1 kts 322°
2026-04-30 02:02 35.38003 -80.71278 643 ft 0 kts 16°
2026-04-30 02:03 35.37996 -80.71281 643 ft 0 kts 11°
2026-04-30 02:11 35.38010 -80.71277 643 ft 6 kts 11°
2026-04-30 02:11 35.38043 -80.71270 645 ft 2 kts 10°
2026-04-30 02:11 35.38065 -80.71265 646 ft 3 kts
2026-04-30 02:12 35.38079 -80.71261 646 ft 1 kts 26°
2026-04-30 02:12 35.38084 -80.71256 646 ft 0 kts 49°
2026-04-30 02:12 35.38086 -80.71247 646 ft 2 kts 82°
2026-04-30 02:12 35.38088 -80.71222 646 ft 3 kts 65°
2026-04-30 02:13 35.38119 -80.71201 647 ft 6 kts 10°
2026-04-30 02:13 35.38167 -80.71190 649 ft 7 kts 10°
2026-04-30 02:13 35.38226 -80.71178 651 ft 9 kts 10°
2026-04-30 02:13 35.38301 -80.71160 653 ft 12 kts 10°
2026-04-30 02:14 35.38392 -80.71140 657 ft 13 kts 11°
2026-04-30 02:14 35.38474 -80.71121 661 ft 11 kts 11°
2026-04-30 02:14 35.38558 -80.71102 663 ft 15 kts 10°
2026-04-30 02:14 35.38683 -80.71074 668 ft 19 kts 10°
2026-04-30 02:15 35.38804 -80.71046 672 ft 15 kts 10°
2026-04-30 02:15 35.38904 -80.71024 674 ft 16 kts 10°
2026-04-30 02:15 35.39034 -80.70995 677 ft 21 kts 10°
2026-04-30 02:15 35.39188 -80.70960 680 ft 23 kts 10°
2026-04-30 02:16 35.39336 -80.70927 683 ft 19 kts 10°
2026-04-30 02:16 35.39461 -80.70898 687 ft 16 kts 10°
2026-04-30 02:16 35.39559 -80.70876 690 ft 12 kts 10°
2026-04-30 02:16 35.39637 -80.70860 692 ft 11 kts 10°
2026-04-30 02:17 35.39703 -80.70844 694 ft 7 kts 10°
2026-04-30 02:17 35.39738 -80.70837 696 ft 3 kts 10°
2026-04-30 02:17 35.39761 -80.70831 697 ft 2 kts 11°
2026-04-30 02:17 35.39782 -80.70812 698 ft 3 kts 65°
2026-04-30 02:18 35.39785 -80.70779 698 ft 6 kts 92°
2026-04-30 02:18 35.39774 -80.70709 699 ft 7 kts 122°
2026-04-30 02:18 35.39720 -80.70700 697 ft 6 kts 189°
2026-04-30 02:18 35.39717 -80.70702 697 ft 0 kts 190°
2026-04-30 02:19 35.39623 -80.70723 693 ft 48 kts 191°
2026-04-30 02:19 35.39019 -80.70860 678 ft 125 kts 190°
2026-04-30 02:19 35.37938 -80.71099 725 ft 182 kts 189°
2026-04-30 02:20 35.36743 -80.71332 1618 ft 178 kts 190°
2026-04-30 02:20 35.35444 -80.71253 2180 ft 202 kts 163°
2026-04-30 02:20 35.34172 -80.70322 2652 ft 223 kts 141°
2026-04-30 02:20 35.32900 -80.69066 3094 ft 246 kts 140°
2026-04-30 02:21 35.31528 -80.67699 3659 ft 263 kts 141°
2026-04-30 02:21 35.30047 -80.66304 4425 ft 272 kts 143°
2026-04-30 02:21 35.28561 -80.64915 5395 ft 271 kts 143°
2026-04-30 02:21 35.27110 -80.63502 6407 ft 269 kts 142°
2026-04-30 02:22 35.25639 -80.62019 6898 ft 289 kts 142°
2026-04-30 02:22 35.24111 -80.60300 7563 ft 302 kts 130°
2026-04-30 02:22 35.23192 -80.58010 8452 ft 307 kts 100°
2026-04-30 02:22 35.23214 -80.55372 9166 ft 312 kts 78°
2026-04-30 02:23 35.23698 -80.52801 9908 ft 317 kts 72°
2026-04-30 02:23 35.24256 -80.50153 10525 ft 328 kts 73°
2026-04-30 02:23 35.24773 -80.47373 11086 ft 342 kts 75°
2026-04-30 02:23 35.25236 -80.44455 11534 ft 359 kts 77°
2026-04-30 02:24 35.25678 -80.41381 11967 ft 375 kts 77°
2026-04-30 02:24 35.26121 -80.38180 12438 ft 388 kts 77°
2026-04-30 02:24 35.26576 -80.34874 12824 ft 403 kts 77°
2026-04-30 02:24 35.27058 -80.31395 13220 ft 417 kts 77°
2026-04-30 02:25 35.27551 -80.27852 13830 ft 423 kts 77°
2026-04-30 02:25 35.28049 -80.24262 14452 ft 430 kts 77°
2026-04-30 02:25 35.28545 -80.20681 15101 ft 434 kts 77°
2026-04-30 02:25 35.29051 -80.17025 15736 ft 439 kts 78°
2026-04-30 02:26 35.29576 -80.13298 16323 ft 444 kts 77°
2026-04-30 02:26 35.30218 -80.09609 16889 ft 449 kts 73°
2026-04-30 02:26 35.31081 -80.05927 17473 ft 452 kts 70°
2026-04-30 02:26 35.32099 -80.02233 17987 ft 458 kts 68°
2026-04-30 02:27 35.33173 -79.98611 18588 ft 461 kts 67°
2026-04-30 02:27 35.34310 -79.94872 19161 ft 465 kts 66°
2026-04-30 02:27 35.35432 -79.91170 19721 ft 469 kts 66°
2026-04-30 02:27 35.36548 -79.87445 20281 ft 473 kts 67°
2026-04-30 02:28 35.37685 -79.83614 20832 ft 477 kts 67°
2026-04-30 02:28 35.38816 -79.79775 21360 ft 481 kts 67°
2026-04-30 02:28 35.39941 -79.75933 21852 ft 485 kts 67°
2026-04-30 02:28 35.41086 -79.72005 22364 ft 489 kts 67°
2026-04-30 02:29 35.42231 -79.68062 22856 ft 493 kts 67°
2026-04-30 02:29 35.43383 -79.64089 23284 ft 498 kts 67°
2026-04-30 02:29 35.44544 -79.60079 23686 ft 504 kts 67°
2026-04-30 02:29 35.45718 -79.56014 24049 ft 510 kts 67°
2026-04-30 02:30 35.46902 -79.51902 24544 ft 513 kts 67°
2026-04-30 02:30 35.48087 -79.47778 24867 ft 519 kts 67°
2026-04-30 02:30 35.49297 -79.43559 25356 ft 522 kts 67°
2026-04-30 02:30 35.50494 -79.39384 25703 ft 528 kts 67°
2026-04-30 02:31 35.51722 -79.35095 26109 ft 532 kts 67°
2026-04-30 02:31 35.52960 -79.30767 26423 ft 538 kts 67°
2026-04-30 02:31 35.54204 -79.26414 26779 ft 541 kts 67°
2026-04-30 02:31 35.55451 -79.22035 27414 ft 539 kts 67°
2026-04-30 02:32 35.56675 -79.17726 27945 ft 539 kts 67°
2026-04-30 02:32 35.57908 -79.13381 28463 ft 539 kts 66°
2026-04-30 02:32 35.59147 -79.09012 28899 ft 540 kts 67°
2026-04-30 02:32 35.60384 -79.04649 29329 ft 542 kts 66°
2026-04-30 02:33 35.61623 -79.00288 29604 ft 547 kts 66°
2026-04-30 02:33 35.62877 -78.95882 29944 ft 550 kts 66°
2026-04-30 02:33 35.64151 -78.91396 30411 ft 550 kts 67°
2026-04-30 02:33 35.65392 -78.87011 31081 ft 545 kts 67°
2026-04-30 02:34 35.66650 -78.82556 31360 ft 549 kts 66°
2026-04-30 02:34 35.67907 -78.78107 31757 ft 550 kts 66°
2026-04-30 02:34 35.69155 -78.73674 32203 ft 549 kts 66°
2026-04-30 02:34 35.70392 -78.69266 32727 ft 547 kts 67°
2026-04-30 02:35 35.71631 -78.64848 33199 ft 546 kts 66°
2026-04-30 02:35 35.72879 -78.60399 33409 ft 550 kts 66°
2026-04-30 02:35 35.74128 -78.55948 33706 ft 552 kts 66°
2026-04-30 02:35 35.75396 -78.51424 33992 ft 555 kts 66°
2026-04-30 02:36 35.76648 -78.46943 34334 ft 556 kts 66°
2026-04-30 02:36 35.77899 -78.42452 34817 ft 554 kts 65°
2026-04-30 02:36 35.79163 -78.37907 34859 ft 556 kts 65°
2026-04-30 02:37 35.81677 -78.28851 34860 ft 546 kts 66°
2026-04-30 02:37 35.84135 -78.19987 34857 ft 549 kts 66°
2026-04-30 02:38 35.86608 -78.11034 34857 ft 550 kts 66°
2026-04-30 02:38 35.89071 -78.02085 34847 ft 549 kts 66°
2026-04-30 02:39 35.91513 -77.93135 34850 ft 549 kts 66°
2026-04-30 02:39 35.93941 -77.84216 34848 ft 548 kts 66°
2026-04-30 02:40 35.96475 -77.75366 34854 ft 543 kts 63°
2026-04-30 02:40 36.00050 -77.67374 34855 ft 527 kts 44°
2026-04-30 02:41 36.04754 -77.60442 34852 ft 523 kts 38°
2026-04-30 02:41 36.09722 -77.53880 34849 ft 520 kts 37°
2026-04-30 02:42 36.14704 -77.47385 34852 ft 514 kts 37°
2026-04-30 02:42 36.19624 -77.40878 34862 ft 518 kts 38°
2026-04-30 02:43 36.24558 -77.34289 34859 ft 518 kts 38°
2026-04-30 02:43 36.29432 -77.27700 34862 ft 516 kts 39°
2026-04-30 02:44 36.34438 -77.21366 34863 ft 511 kts 34°
2026-04-30 02:44 36.39712 -77.15428 34864 ft 512 kts 32°
2026-04-30 02:45 36.45016 -77.09605 34854 ft 505 kts 32°
2026-04-30 02:45 36.50290 -77.03805 34851 ft 510 kts 32°
2026-04-30 02:46 36.55586 -76.97911 34854 ft 511 kts 33°
2026-04-30 02:46 36.60856 -76.91986 34847 ft 509 kts 33°
2026-04-30 02:47 36.66062 -76.86105 34853 ft 509 kts 33°
2026-04-30 02:47 36.71329 -76.80148 34855 ft 510 kts 34°
2026-04-30 02:48 36.76641 -76.74130 34853 ft 508 kts 33°
2026-04-30 02:48 36.81851 -76.68205 34850 ft 508 kts 33°
2026-04-30 02:49 36.87138 -76.62199 34850 ft 511 kts 33°
2026-04-30 02:49 36.92365 -76.56238 34845 ft 508 kts 34°
2026-04-30 02:50 36.97598 -76.50262 34853 ft 511 kts 34°
2026-04-30 02:50 37.02892 -76.44205 34845 ft 507 kts 34°
2026-04-30 02:51 37.08102 -76.38233 34846 ft 510 kts 34°
2026-04-30 02:51 37.13373 -76.32182 34842 ft 512 kts 35°
2026-04-30 02:52 37.18598 -76.26165 34836 ft 509 kts 35°
2026-04-30 02:52 37.23866 -76.20087 34836 ft 511 kts 35°
2026-04-30 02:53 37.29072 -76.14072 34765 ft 512 kts 36°
2026-04-30 02:53 37.34322 -76.08000 34823 ft 514 kts 35°
2026-04-30 02:54 37.39582 -76.01894 34823 ft 512 kts 35°
2026-04-30 02:54 37.44777 -75.95850 34820 ft 510 kts 35°
2026-04-30 02:55 37.50030 -75.89771 34824 ft 507 kts 34°
2026-04-30 02:55 37.55513 -75.84255 34833 ft 502 kts 26°
2026-04-30 02:56 37.61399 -75.79546 34847 ft 496 kts 22°
2026-04-30 02:56 37.67350 -75.75159 34854 ft 495 kts 21°
2026-04-30 02:57 37.73344 -75.70767 34856 ft 496 kts 21°
2026-04-30 02:57 37.79318 -75.66335 34857 ft 496 kts 21°
2026-04-30 02:58 37.85236 -75.61883 34856 ft 497 kts 22°
2026-04-30 02:58 37.91044 -75.57060 34859 ft 500 kts 26°
2026-04-30 02:59 37.96775 -75.51974 34863 ft 499 kts 26°
2026-04-30 02:59 38.02452 -75.46900 34862 ft 500 kts 26°
2026-04-30 03:00 38.08150 -75.41898 34858 ft 498 kts 25°
2026-04-30 03:00 38.14018 -75.37055 34860 ft 497 kts 24°
2026-04-30 03:01 38.19856 -75.32342 34859 ft 496 kts 24°
2026-04-30 03:01 38.25823 -75.27986 34867 ft 485 kts 17°
2026-04-30 03:02 38.31996 -75.24612 34873 ft 479 kts 12°
2026-04-30 03:02 38.38258 -75.21611 34871 ft 479 kts 11°
2026-04-30 03:03 38.44498 -75.18676 34875 ft 477 kts 12°
2026-04-30 03:03 38.53902 -75.14185 34868 ft 479 kts 12°
2026-04-30 03:04 38.60077 -75.11181 34867 ft 478 kts 14°
2026-04-30 03:04 38.66105 -75.07201 34872 ft 493 kts 27°
2026-04-30 03:05 38.71495 -75.01720 34876 ft 498 kts 35°
2026-04-30 03:05 38.76646 -74.95715 34884 ft 499 kts 37°
2026-04-30 03:06 38.81746 -74.89781 34880 ft 495 kts 34°
2026-04-30 03:06 38.87074 -74.84119 34882 ft 494 kts 33°
2026-04-30 03:07 38.92454 -74.78584 34895 ft 491 kts 32°
2026-04-30 03:07 38.97778 -74.73105 34842 ft 488 kts 32°
2026-04-30 03:08 39.00379 -74.70403 34573 ft 483 kts 33°
2026-04-30 03:08 39.02963 -74.67702 34057 ft 482 kts 33°
2026-04-30 03:08 39.05567 -74.64973 33310 ft 484 kts 33°
2026-04-30 03:08 39.08191 -74.62221 32523 ft 486 kts 33°
2026-04-30 03:09 39.10825 -74.59455 31726 ft 488 kts 34°
2026-04-30 03:09 39.13467 -74.56678 30898 ft 490 kts 35°
2026-04-30 03:09 39.16133 -74.53858 30110 ft 491 kts 36°
2026-04-30 03:09 39.18754 -74.51033 29537 ft 487 kts 37°
2026-04-30 03:10 39.21355 -74.48196 28909 ft 484 kts 37°
2026-04-30 03:10 39.23889 -74.45415 28278 ft 481 kts 37°
2026-04-30 03:10 39.26415 -74.42637 27638 ft 478 kts 37°
2026-04-30 03:10 39.28963 -74.39831 26990 ft 475 kts 37°
2026-04-30 03:11 39.31430 -74.37109 26366 ft 471 kts 37°
2026-04-30 03:11 39.33921 -74.34356 25726 ft 468 kts 38°
2026-04-30 03:11 39.36387 -74.31629 25081 ft 465 kts 38°
2026-04-30 03:11 39.38842 -74.28915 24457 ft 461 kts 38°
2026-04-30 03:12 39.41265 -74.26234 23831 ft 458 kts 38°
2026-04-30 03:12 39.43674 -74.23570 23193 ft 456 kts 38°
2026-04-30 03:12 39.46054 -74.20936 22571 ft 453 kts 38°
2026-04-30 03:12 39.48435 -74.18296 21936 ft 451 kts 38°
2026-04-30 03:13 39.50783 -74.15656 21305 ft 449 kts 40°
2026-04-30 03:13 39.53017 -74.12839 20921 ft 440 kts 44°
2026-04-30 03:13 39.55032 -74.09943 20873 ft 425 kts 47°
2026-04-30 03:13 39.56917 -74.07046 20873 ft 423 kts 49°
2026-04-30 03:14 39.58794 -74.04086 20871 ft 426 kts 49°
2026-04-30 03:14 39.60664 -74.01116 20871 ft 428 kts 49°
2026-04-30 03:14 39.62532 -73.98144 20871 ft 427 kts 49°
2026-04-30 03:14 39.64399 -73.95180 20871 ft 425 kts 49°
2026-04-30 03:15 39.66270 -73.92217 20871 ft 425 kts 49°
2026-04-30 03:15 39.68160 -73.89224 20875 ft 425 kts 49°
2026-04-30 03:15 39.70021 -73.86277 20870 ft 425 kts 48°
2026-04-30 03:15 39.71897 -73.83311 20872 ft 424 kts 49°
2026-04-30 03:16 39.73757 -73.80368 20881 ft 424 kts 49°
2026-04-30 03:16 39.75631 -73.77400 20878 ft 425 kts 49°
2026-04-30 03:16 39.77485 -73.74461 20877 ft 423 kts 49°
2026-04-30 03:16 39.79365 -73.71479 20881 ft 423 kts 49°
2026-04-30 03:17 39.81216 -73.68542 20879 ft 424 kts 49°
2026-04-30 03:17 39.83079 -73.65585 20880 ft 423 kts 49°
2026-04-30 03:17 39.84950 -73.62613 20882 ft 423 kts 49°
2026-04-30 03:17 39.86807 -73.59667 20881 ft 421 kts 49°
2026-04-30 03:18 39.88650 -73.56751 20882 ft 422 kts 49°
2026-04-30 03:18 39.90573 -73.53872 20879 ft 421 kts 45°
2026-04-30 03:18 39.92631 -73.51174 20882 ft 420 kts 41°
2026-04-30 03:18 39.94774 -73.48587 20886 ft 419 kts 40°
2026-04-30 03:19 39.96949 -73.46049 20887 ft 420 kts 39°
2026-04-30 03:19 39.99134 -73.43527 20888 ft 418 kts 39°
2026-04-30 03:19 40.01309 -73.41011 20887 ft 419 kts 39°
2026-04-30 03:19 40.03483 -73.38484 20888 ft 418 kts 39°
2026-04-30 03:20 40.05650 -73.35950 20888 ft 419 kts 40°
2026-04-30 03:20 40.07804 -73.33415 20893 ft 418 kts 40°
2026-04-30 03:20 40.09954 -73.30870 20894 ft 420 kts 41°
2026-04-30 03:20 40.12138 -73.28281 20893 ft 418 kts 41°
2026-04-30 03:21 40.14315 -73.25693 20846 ft 419 kts 41°
2026-04-30 03:21 40.16453 -73.23149 20501 ft 420 kts 41°
2026-04-30 03:21 40.18601 -73.20590 20061 ft 415 kts 41°
2026-04-30 03:21 40.20736 -73.18040 19618 ft 409 kts 41°
2026-04-30 03:22 40.22810 -73.15560 19180 ft 405 kts 41°
2026-04-30 03:22 40.24863 -73.13103 18745 ft 401 kts 41°
2026-04-30 03:22 40.26899 -73.10664 18309 ft 397 kts 41°
2026-04-30 03:22 40.28920 -73.08242 17880 ft 393 kts 41°
2026-04-30 03:23 40.30935 -73.05824 17449 ft 392 kts 41°
2026-04-30 03:23 40.33005 -73.03478 17013 ft 391 kts 34°
2026-04-30 03:23 40.35418 -73.01903 16583 ft 386 kts 15°
2026-04-30 03:23 40.38037 -73.01321 16152 ft 381 kts
2026-04-30 03:24 40.40669 -73.01186 15718 ft 379 kts 358°
2026-04-30 03:24 40.43310 -73.01166 15282 ft 378 kts 357°
2026-04-30 03:24 40.45918 -73.01176 14844 ft 376 kts 357°
2026-04-30 03:24 40.48548 -73.01183 14399 ft 375 kts 357°
2026-04-30 03:25 40.51133 -73.01183 13961 ft 373 kts 357°
2026-04-30 03:25 40.53759 -73.01180 13515 ft 372 kts 357°
2026-04-30 03:25 40.56333 -73.01180 13071 ft 369 kts 357°
2026-04-30 03:25 40.58882 -73.01189 12633 ft 367 kts 357°
2026-04-30 03:26 40.61443 -73.01211 12183 ft 365 kts 357°
2026-04-30 03:26 40.63982 -73.01241 11732 ft 361 kts 357°
2026-04-30 03:26 40.66465 -73.01279 11291 ft 357 kts 357°
2026-04-30 03:26 40.68915 -73.01325 11010 ft 348 kts 357°
2026-04-30 03:27 40.71304 -73.01372 10982 ft 331 kts 357°
2026-04-30 03:27 40.73566 -73.01416 10977 ft 315 kts 357°
2026-04-30 03:27 40.75723 -73.01455 10978 ft 310 kts 357°
2026-04-30 03:27 40.77911 -73.01494 10978 ft 312 kts 357°
2026-04-30 03:28 40.80067 -73.01533 10978 ft 311 kts 357°
2026-04-30 03:28 40.82259 -73.01566 10979 ft 312 kts 357°
2026-04-30 03:28 40.84440 -73.01597 10978 ft 313 kts 357°
2026-04-30 03:28 40.86602 -73.01630 10975 ft 312 kts 357°
2026-04-30 03:29 40.88797 -73.01671 10977 ft 313 kts 357°
2026-04-30 03:29 40.90989 -73.01711 10976 ft 313 kts 357°
2026-04-30 03:29 40.93166 -73.01753 10974 ft 314 kts 357°
2026-04-30 03:29 40.95348 -73.01798 10976 ft 313 kts 357°
2026-04-30 03:30 40.97538 -73.01842 10968 ft 314 kts 357°
2026-04-30 03:30 40.99725 -73.01888 10967 ft 313 kts 357°
2026-04-30 03:30 41.01908 -73.01940 10966 ft 313 kts 357°
2026-04-30 03:30 41.04115 -73.01998 10943 ft 313 kts 357°
2026-04-30 03:31 41.06298 -73.02064 10672 ft 316 kts 357°
2026-04-30 03:31 41.08475 -73.02135 10297 ft 314 kts 357°
2026-04-30 03:31 41.10680 -73.02215 9920 ft 312 kts 357°
2026-04-30 03:31 41.12855 -73.02299 9544 ft 310 kts 357°
2026-04-30 03:32 41.14999 -73.02385 9171 ft 308 kts 357°
2026-04-30 03:32 41.16991 -73.02460 8795 ft 307 kts 357°
2026-04-30 03:32 41.19124 -73.02540 8339 ft 305 kts 357°
2026-04-30 03:32 41.21138 -73.02615 7909 ft 302 kts 357°
2026-04-30 03:33 41.23255 -73.02692 7451 ft 298 kts 357°
2026-04-30 03:33 41.24664 -73.02742 7143 ft 296 kts 357°
2026-04-30 03:33 41.26922 -73.02822 6640 ft 293 kts 357°
2026-04-30 03:33 41.28937 -73.02894 6194 ft 290 kts 357°
2026-04-30 03:34 41.30968 -73.02970 5813 ft 288 kts 357°
2026-04-30 03:34 41.32951 -73.03053 5436 ft 288 kts 357°
2026-04-30 03:34 41.34956 -73.03148 5053 ft 287 kts 357°
2026-04-30 03:34 41.36968 -73.03251 4666 ft 286 kts 357°
2026-04-30 03:35 41.38959 -73.03363 4279 ft 284 kts 357°
2026-04-30 03:35 41.40901 -73.03484 3903 ft 281 kts 357°
2026-04-30 03:35 41.42851 -73.03615 3525 ft 279 kts 357°
2026-04-30 03:35 41.44795 -73.03753 3151 ft 278 kts 357°
2026-04-30 03:36 41.46700 -73.03888 3054 ft 266 kts 357°
2026-04-30 03:36 41.48516 -73.04011 2958 ft 255 kts 357°
2026-04-30 03:36 41.50227 -73.03871 2952 ft 238 kts 18°
2026-04-30 03:36 41.51560 -73.02723 2839 ft 220 kts 58°
2026-04-30 03:37 41.52084 -73.00977 2897 ft 194 kts 89°
2026-04-30 03:37 41.52063 -72.99226 2996 ft 183 kts 98°
2026-04-30 03:37 41.52000 -72.97508 2883 ft 186 kts 97°
2026-04-30 03:37 41.51959 -72.95803 2936 ft 182 kts 96°
2026-04-30 03:38 41.51917 -72.94090 2983 ft 190 kts 96°
2026-04-30 03:38 41.51878 -72.92355 2880 ft 183 kts 96°
2026-04-30 03:38 41.51784 -72.90679 2907 ft 180 kts 111°
2026-04-30 03:38 41.51120 -72.89339 2884 ft 167 kts 144°
2026-04-30 03:39 41.50106 -72.88757 2777 ft 157 kts 171°
2026-04-30 03:39 41.49039 -72.88543 2740 ft 151 kts 171°
2026-04-30 03:39 41.47966 -72.88350 2633 ft 164 kts 174°
2026-04-30 03:39 41.46800 -72.88209 2288 ft 169 kts 173°
2026-04-30 03:40 41.45639 -72.88026 2009 ft 169 kts 172°
2026-04-30 03:40 41.44506 -72.87863 2108 ft 159 kts 174°
2026-04-30 03:40 41.43391 -72.87821 2319 ft 165 kts 182°
2026-04-30 03:40 41.42223 -72.87949 2323 ft 165 kts 182°
2026-04-30 03:41 41.41087 -72.88017 2235 ft 164 kts 180°
2026-04-30 03:41 41.39944 -72.88046 2213 ft 164 kts 180°
2026-04-30 03:41 41.38795 -72.88061 2153 ft 164 kts 179°
2026-04-30 03:41 41.37641 -72.88062 1976 ft 165 kts 178°
2026-04-30 03:42 41.36506 -72.88084 1914 ft 162 kts 181°
2026-04-30 03:42 41.35362 -72.88181 1836 ft 165 kts 182°
2026-04-30 03:42 41.34258 -72.88290 1681 ft 154 kts 180°
2026-04-30 03:42 41.33203 -72.88319 1471 ft 146 kts 180°
2026-04-30 03:43 41.32246 -72.88367 1332 ft 132 kts 181°
2026-04-30 03:43 41.31341 -72.88438 1179 ft 132 kts 182°
2026-04-30 03:43 41.30403 -72.88512 941 ft 136 kts 181°
2026-04-30 03:43 41.29462 -72.88563 633 ft 138 kts 181°
2026-04-30 03:44 41.28509 -72.88630 376 ft 136 kts 181°
2026-04-30 03:44 41.27555 -72.88692 159 ft 137 kts 181°
2026-04-30 03:44 41.26622 -72.88754 26 ft 124 kts 183°
2026-04-30 03:44 41.26014 -72.88797 27 ft 52 kts 183°
2026-04-30 03:45 41.25723 -72.88817 28 ft 34 kts 181°
2026-04-30 03:45 41.25621 -72.88808 28 ft 8 kts 136°
2026-04-30 03:45 41.25619 -72.88738 28 ft 7 kts 49°
2026-04-30 03:45 41.25668 -72.88721 28 ft 7 kts
2026-04-30 03:46 41.25715 -72.88718 28 ft 6 kts
2026-04-30 03:46 41.25757 -72.88715 28 ft 5 kts
2026-04-30 03:46 41.25795 -72.88713 28 ft 6 kts
2026-04-30 03:46 41.25855 -72.88705 28 ft 8 kts
2026-04-30 03:47 41.25927 -72.88688 27 ft 15 kts 10°
2026-04-30 03:47 41.26052 -72.88659 27 ft 18 kts
2026-04-30 03:47 41.26178 -72.88630 27 ft 17 kts
2026-04-30 03:47 41.26226 -72.88620 27 ft 0 kts
2026-04-30 03:48 41.26231 -72.88618 27 ft 3 kts
2026-04-30 03:48 41.26285 -72.88597 26 ft 8 kts 31°
2026-04-30 03:48 41.26331 -72.88554 26 ft 7 kts 35°
2026-04-30 03:49 41.26374 -72.88513 26 ft 7 kts 37°
2026-04-30 03:49 41.26421 -72.88466 26 ft 8 kts 37°
2026-04-30 03:49 41.26469 -72.88477 26 ft 8 kts 313°
2026-04-30 03:49 41.26527 -72.88566 26 ft 14 kts 311°
2026-04-30 03:50 41.26576 -72.88641 26 ft 0 kts 311°
2026-04-30 03:52 41.26589 -72.88661 26 ft 8 kts 311°
2026-04-30 03:52 41.26652 -72.88755 26 ft 14 kts 311°
2026-04-30 03:52 41.26716 -72.88853 26 ft 13 kts 310°
2026-04-30 03:53 41.26775 -72.88945 26 ft 12 kts 310°
2026-04-30 03:53 41.26816 -72.88976 26 ft 5 kts 23°
2026-04-30 03:53 41.26854 -72.88949 26 ft 8 kts 14°
2026-04-30 03:53 41.26901 -72.88982 26 ft 7 kts 310°
2026-04-30 03:54 41.26913 -72.89002 26 ft 0 kts 308°